User: anonymous   Login
Location: Space Photons Observatory
(33.2428°N, 111.5467°W)
Time: 00:09:25
(UTC-07:00)
Language:

RESURS DK-1 - Orbit

View from above orbital plane
View from above orbital plane
View from above satellite
View from above satellite

Ground track
Ground track

The orbit data is extracted from the following two-line orbital elements,

1 29228U 06021A   16121.21703089  .00000408  00000-0  38639-4 0  9998
2 29228  69.9376  68.5556 0007819 255.9149 104.1175 15.01876840546093
Epoch (UTC): 30 April 2016 05:12:31
Eccentricity: 0.0007819
inclination: 69.9376°
perigee height: 555 km
apogee height: 566 km
right ascension of ascending node: 68.5556°
argument of perigee: 255.9149°
revolutions per day: 15.01876840
mean anomaly at epoch: 104.1175°
orbit number at epoch: 54609

The dashed part of the orbit path shows where the satellite is in the earth's shadow,  

DLR